Regional Weather Roundup
Issued by NWS

Home | Current Version | Previous Version | Graphics & Text | Print | Product List | Glossary On
Versions: 1 2 3 4 5 6 7 8 9 10 11 12 13 14 15 16 17 18 19 20 21 22 23 24 25 26 27 28 29 30 31 32 33 34 35 36 37 38 39 40 41 42 43 44 45 46 47 48 49 50
000
ASUS43 KDMX 042107
RWRIA

WEATHER ROUNDUP FOR IOWA
NATIONAL WEATHER SERVICE DES MOINES IA
400 PM CDT TUE AUG 04 2015

NOTE: "FAIR" INDICATES FEW OR NO CLOUDS BELOW 12,000 FEET WITH NO
SIGNIFICANT WEATHER AND/OR OBSTRUCTIONS TO VISIBILITY.

* - THESE STATIONS ARE NOT NWS STATIONS...THUS NOT UNDER NWS
QUALITY CONTROL.  THEY ALSO DO NOT REPORT WEATHER SUCH
AS PRECIPITATION OR FOG.

IAZ001>003-012>014-020>022-031>034-043>046-042200-
   NORTHWEST IOWA

CITY           SKY/WX    TMP DP  RH WIND       PRES   REMARKS
CARROLL *      SUNNY     75  63  64 E6G15     29.98R
CHEROKEE *     PTSUNNY   77  64  65 E7        29.99R
DENISON *      SUNNY     77  63  61 SE8       29.96S
LE MARS *      MOSUNNY   79  64  61 E7        29.99S HX  81
ORANGE CITY *  SUNNY     77  63  61 E6        29.99S
SHELDON *      SUNNY     79  64  61 VRB5      29.99S HX  81
SIOUX CITY     MOSUNNY   79  62  56 SE9       29.97S HX  80
SPENCER        PTSUNNY   77  59  53 E7        30.00R
STORM LAKE *   SUNNY     77  63  61 E6        30.00R
$$

IAZ055>058-069>071-079>083-090>094-042200-
   SOUTHWEST IOWA

CITY           SKY/WX    TMP DP  RH WIND       PRES   REMARKS
ATLANTIC *     SUNNY     73  64  73 SE6       29.96S
AUDUBON *      SUNNY     75  64  69 SE8       29.99R
CLARINDA *     SUNNY     81  72  74 SE12      29.94F HX  84
COUNCIL BLFS * CLOUDY    73  68  83 NE8       29.95S
CRESTON *      SUNNY     73  66  78 VRB6G12   29.98F
HARLAN  *      SUNNY     75  70  83 SE7       30.00R
LAMONI         CLOUDY    75  67  76 SE9       29.96F
RED OAK *      CLOUDY    79  73  83 SE9       29.92F HX  82
SHENANDOAH *   SUNNY     81  72  74 SE13G20   29.92S HX  84
$$

IAZ047>049-059>061-072>074-084-042200-
   CENTRAL IOWA

CITY           SKY/WX    TMP DP  RH WIND       PRES   REMARKS
AMES           PTSUNNY   79  60  52 E7        29.96R HX  80
ANKENY *       SUNNY     77  63  61 SE5       29.97R
CHARITON *     SUNNY     73  63  68 SE8       29.97S
DES MOINES     CLOUDY    78  61  55 S8        29.96S HX  80
GRINNELL*      CLOUDY    77  61  57 E6        29.98S
KNOXVILLE *    SUNNY     77  63  61 SE7       29.96S
MARSHALLTOWN   PTSUNNY   78  63  59 NE8       29.95F HX  80
PELLA *        CLOUDY    77  66  69 E3        29.98S
PERRY *          N/A     77  66  69 SE8       29.97R
$$

IAZ004>006-015-016-023>025-035-036-042200-
   NORTH CENTRAL IOWA

CITY           SKY/WX    TMP DP  RH WIND       PRES   REMARKS
ALGONA *       SUNNY     77  55  47 VRB6      29.99S
CLARION *      SUNNY     77  61  57 NE7       29.97F
ESTHERVILLE    CLOUDY    74  55  51 CALM      30.00S
FORT DODGE *   MOSUNNY   79  63  57 E7        29.98S HX  80
MASON CITY     PTSUNNY   77  56  48 NE3       30.00F
FOREST CITY *  SUNNY     73  50  43 E3        29.99F
IOWA FALLS *     N/A     79  59  50 NE7       29.97F HX  80
$$

IAZ007>011-017>019-026>030-037>042-050>054-066-042200-
   NORTHEAST IOWA

CITY           SKY/WX    TMP DP  RH WIND       PRES   REMARKS
CEDAR RAPIDS   CLOUDY    78  63  59 NW3       29.97F HX  80
CHARLES CITY * SUNNY     75  57  53 NE7       30.00F
CLINTON *      CLOUDY    79  61  53 NW8       30.00F HX  80
DECORAH *      SUNNY     75  55  50 NW6       29.99F
DUBUQUE        PTSUNNY   80  54  40 N9        29.99F HX  80
MONTICELLO *   SUNNY     79  57  47 NW7       29.97F HX  80
OELWEIN *      SUNNY     77  54  44 CALM      29.99F
WATERLOO       PTSUNNY   80  55  42 N9        29.96F HX  80
$$

IAZ064-065-067-068-078-042200-
   EAST CENTRAL IOWA

CITY           SKY/WX    TMP DP  RH WIND       PRES   REMARKS
DAVENPORT      CLOUDY    79  62  56 NW3       29.97F HX  80
IOWA CITY      CLOUDY    79  61  53 N6        29.98F HX  80
MT. PLEASANT * CLOUDY    81  57  44 CALM      29.99R HX  81
MUSCATINE *    SUNNY     81  61  50 NE5       29.96F HX  81
QUAD CITIES    CLOUDY    82  59  45 N5        29.96F HX  82
$$

IAZ062-063-075>077-085>089-095>099-042200-
   SOUTHEAST IOWA

CITY           SKY/WX    TMP DP  RH WIND       PRES   REMARKS
BURLINGTON     CLOUDY    76  64  66 S6        29.98R
FAIRFIELD *    SUNNY     77  61  57 SE5       29.98S
FORT MADISON * SUNNY     75  64  69 S3        29.99F
KEOKUK *       SUNNY     75  63  64 CALM      29.98F
OSKALOOSA *      N/A     77  63  61 SE3       29.98F
CENTERVILLE *  SUNNY     73  66  78 SE7       29.99F
OTTUMWA        PTSUNNY   76  60  57 E7        29.97S
WASHINGTON *   SUNNY     77  61  57 CALM      29.99R
$$

ABBREVIATIONS USED IN REMARKS
   TC - TEMPERATURES IN CELSIUS
  WCI - WIND CHILL INDEX
   HX - HEAT INDEX
  VSB - VISIBILITY
$$




USA.gov is the U.S. government's official web portal to all federal, state and local government web resources and services.